Probability
0 0 0 0 0 0 0 0 0 0 0 0 0 0 0 0 0 0 0 0 0 0 0 0 0 0 0 0 0 0 0 0 0 0 0 0 0 0
0 0 0 0 0 0 0 0 0 0 0 0 0 0 0 0 0 0 0 0 0 0 0 0 0 0 0 0 0 0 0 0 0 0 0 0 0 0
0 0 0 0 0 0 0 0 0 0 0 0 0 0 0 0 0 0 0 0 0 0 0 0 0 0 0 0 0 0 0 0 0 0 0 0 0 0
0 0 0 0 0 0 0 0 0 0 0 0 0 0 0 0 0 0 0 0 0 0 0 0 0 0 0 0 0 0 0 0 0 0 0 0 0 0
0 0 0 0 0 0 0 0 0 0 0 0 0 0 0 0 0 0 0 0 0 0 0 0 0 0 0 0 0 0 0 0 0 0 0 0 0 0
0 0 0 0 0 0 0 0 0 0 0 0 0 0 0 0 0 0 0 0 0 0 0 0 0 0 0 0 0 0 0 0 0 0 0 0 0 0
0 0 0 0 0 0 0 0 0 0 0 0 0 0 0 0 0 0 0 0 0 0 0 0 0 0 0 0 0 0 0 0 0 0 0 0 0 0
0 0 0 0 0 0 0 0 0 0 0 0 0 0 0 0 0 0 0 0 0 0 0 0 0 0 0 0 0 0 0 0 0 0 0 0 0 0
0 0 0 0 0 0 0 0 0 0 0 0 0 0 0 0 0 0 0 0 0 0 0 0 0 0 0 0 0 0 0 0 0 0 0 0 0 0
0 0 0 0 0 0 0 0 0 0 0 0 0 0 0 0 0 0 0 0 0 0 0 0 0 0 0 0 0 0 0 0 0 0 0 0 0 0
0 0 0 0 0 0 0 0 0 0 0 0 0 0 0 0 0 0 0 0 0 0 0 0 0 0 0 0 0 0 0 0 0 0 0 0 0 0
0 0 0 0 0 0 0 0 0 0 0 0 0 0 0 0 0 0 0 0 0 0 0 0 0 0 0 0 0 0 0 0 0 0 0 0 0 0
0 0 0 0 0 0 0 0 0 0 0 0 0 0 0 0 0 0 0 0 0 0 0 0 0 0 0 0 0 0 0 0 0 0 0 0 0 0
0 0 0 0 0 0 0 0 0 0 0 0 0 0 0 0 0 0 0 0 0 0 0 0 0 0 0 0 0 0 0 0 0 0 0 0 0 0
0 0 0 0 0 0 0 0 0 0 0 0 0 0 0 0 0 0 0 0 0 0 0 0 0 0 0 0 0 0 0 0 0 0 0 0 0 0
0 0 0 0 0 0 0 0 0 0 0 0 0 0 0 0 0 0 0 0 0 0 0 0 0 0 0 0 0 0 0 0 0 0 0 0 0 0
0 0 0 0 0 0 0 0 0 0 0 0 0 0 0 0 0 0 0 0 0 0 0 0 0 0 0 0 0 0 0 0 0 0 0 0 0 0
0 0 0 0 0 0 0 0 0 0 0 0 0 0 0 0 0 0 0 0 0 0 0 0 0 0 0 0 0 0 0 0 0 0 0 0 0 0
0 0 0 0 0 0 0 0 0 0 0 0 0 0 0 0 0 0 0 0 0 0 0 0 0 0 0 0 0 0 0 0 0 0 0 0 0 0
0 0 0 0 0 0 0 0 0 0 0 0 0 0 0 0 0 0 0 0 0 0 0 0 0 0 0 0 0 0 0 0 0 0 0 0 0 0
0 0 0 0 0 0 0 0 0 0 0 0 0 0 0 0 0 0 0 0 0 0 0 0 0 0 0 0 0 0 0 0 0 0 0 0 0 0
0 0 0 0 0 0 0 0 0 0 0 0 0 0 0 0 0 0 0 0 0 0 0 0 0 0 0 0 0 0 0 0 0 0 0 0 0 0
0 0 0 0 0 0 0 0 0 0 0 0 0 0 0 0 0 0 0 0 0 0 0 0 0 0 0 0 0 0 0 0 0 0 0 0 0 0
Height
5600 5591 5581 5571 5559 5546 5531 5513 5497 5488 5490 5482 5467 5451 5434 5417 5403 5391 5383 5377 5370 5365 5360 5356 5354 5353 5354 5356 5359 5364 5371 5378 5387 5398 5410 5420 5431 5439
5583 5573 5562 5549 5536 5521 5505 5488 5468 5450 5444 5444 5432 5422 5406 5391 5377 5364 5354 5348 5343 5339 5334 5330 5329 5329 5330 5331 5333 5337 5343 5350 5359 5371 5381 5392 5403 5412
5565 5553 5540 5525 5510 5495 5478 5462 5444 5425 5409 5409 5401 5390 5378 5366 5355 5343 5331 5323 5319 5315 5310 5305 5303 5303 5304 5305 5307 5310 5315 5322 5331 5341 5352 5364 5375 5387
5544 5530 5515 5499 5484 5467 5450 5435 5420 5404 5387 5378 5375 5364 5353 5341 5331 5322 5312 5304 5297 5292 5286 5281 5278 5276 5276 5278 5280 5284 5288 5294 5303 5312 5324 5339 5354 5364
5521 5506 5490 5473 5457 5440 5425 5411 5397 5384 5370 5356 5348 5340 5330 5320 5309 5302 5294 5287 5279 5270 5263 5258 5254 5251 5250 5252 5254 5257 5261 5267 5276 5288 5300 5314 5329 5341
5498 5481 5464 5446 5430 5415 5402 5390 5376 5364 5352 5338 5326 5317 5308 5300 5289 5281 5275 5270 5261 5251 5242 5236 5231 5228 5227 5227 5228 5230 5233 5239 5250 5264 5278 5293 5307 5320
5475 5456 5439 5422 5406 5393 5380 5368 5356 5344 5331 5317 5305 5296 5287 5278 5269 5261 5253 5249 5244 5232 5223 5219 5212 5209 5208 5205 5204 5206 5209 5214 5224 5239 5256 5273 5289 5302
5450 5433 5417 5401 5387 5376 5364 5351 5339 5326 5311 5297 5286 5277 5269 5259 5250 5242 5234 5228 5225 5219 5207 5205 5198 5195 5192 5190 5188 5187 5188 5193 5203 5220 5239 5257 5273 5287
5424 5409 5395 5382 5368 5358 5347 5337 5326 5313 5296 5280 5269 5261 5252 5244 5235 5229 5222 5214 5208 5203 5197 5195 5190 5187 5184 5181 5178 5175 5176 5181 5192 5209 5226 5243 5259 5274
5401 5387 5375 5364 5352 5339 5328 5318 5307 5295 5280 5268 5257 5247 5239 5231 5223 5217 5210 5205 5200 5194 5189 5187 5186 5183 5180 5177 5173 5170 5170 5176 5187 5202 5218 5234 5249 5264
5383 5370 5357 5347 5336 5322 5309 5299 5289 5279 5268 5258 5247 5237 5230 5222 5215 5209 5203 5198 5194 5189 5185 5183 5182 5180 5179 5175 5172 5169 5170 5176 5187 5200 5213 5225 5238 5251
5369 5356 5343 5330 5318 5305 5292 5281 5271 5264 5257 5248 5240 5232 5225 5218 5211 5204 5198 5193 5189 5186 5182 5180 5180 5178 5177 5175 5173 5171 5172 5177 5186 5196 5206 5217 5227 5239
5350 5340 5328 5314 5300 5288 5276 5266 5259 5253 5246 5240 5234 5227 5221 5214 5208 5202 5196 5190 5187 5183 5181 5179 5178 5177 5176 5175 5173 5173 5175 5177 5183 5191 5200 5209 5218 5228
5329 5319 5308 5296 5284 5273 5264 5257 5252 5245 5240 5234 5228 5222 5216 5210 5205 5199 5194 5189 5185 5182 5179 5177 5176 5175 5174 5174 5174 5175 5176 5178 5182 5187 5194 5202 5210 5217
5311 5300 5289 5278 5270 5263 5257 5251 5245 5240 5235 5229 5223 5217 5212 5206 5202 5198 5193 5188 5184 5180 5177 5175 5173 5173 5172 5171 5173 5175 5178 5180 5183 5187 5193 5200 5206 5212
5295 5284 5275 5267 5261 5255 5251 5246 5241 5236 5230 5225 5219 5215 5210 5205 5201 5197 5192 5188 5183 5179 5175 5173 5171 5171 5170 5171 5172 5176 5179 5182 5186 5190 5195 5201 5208 5215
5279 5272 5266 5261 5256 5252 5247 5243 5239 5234 5228 5223 5218 5214 5209 5205 5202 5198 5193 5189 5184 5179 5175 5173 5172 5172 5172 5172 5175 5179 5183 5187 5191 5196 5201 5207 5214 5221
5271 5265 5260 5256 5252 5249 5246 5242 5237 5232 5228 5223 5218 5214 5210 5207 5204 5200 5196 5192 5187 5182 5178 5176 5176 5176 5177 5178 5180 5184 5187 5192 5197 5202 5208 5214 5220 5227
5266 5261 5256 5253 5250 5247 5244 5240 5236 5232 5228 5224 5220 5216 5213 5210 5207 5204 5200 5196 5191 5187 5184 5182 5181 5182 5183 5184 5187 5189 5193 5197 5202 5208 5214 5219 5226 5232
5264 5259 5256 5253 5250 5247 5243 5240 5237 5233 5230 5226 5222 5219 5216 5213 5210 5207 5204 5200 5197 5193 5191 5189 5188 5188 5189 5191 5193 5195 5198 5202 5207 5213 5218 5224 5230 5237
5264 5260 5256 5253 5250 5247 5244 5241 5238 5234 5231 5227 5224 5221 5218 5215 5212 5209 5207 5204 5201 5199 5197 5195 5194 5194 5195 5196 5198 5201 5204 5207 5211 5216 5222 5228 5235 5242
5265 5261 5258 5254 5251 5248 5245 5242 5239 5235 5231 5228 5224 5221 5218 5216 5213 5211 5209 5207 5205 5203 5202 5201 5200 5200 5200 5201 5203 5205 5208 5212 5215 5220 5225 5231 5237 5244
5266 5262 5259 5256 5253 5249 5246 5243 5239 5235 5231 5227 5224 5221 5218 5216 5214 5212 5210 5208 5206 5205 5204 5204 5204 5204 5204 5205 5206 5208 5211 5214 5218 5223 5228 5233 5238 5244
Wind_Speed
74 77 80 84 88 93 98 103 107 108 106 103 101 98 96 94 90 87 84 79 76 73 72 71 70 70 69 68 68 71 75 82 93 95 94 92 86 78
78 81 85 90 95 99 103 105 106 107 108 102 97 92 86 84 82 81 78 75 72 69 68 68 68 68 67 67 67 66 70 76 85 95 98 96 93 90
82 87 92 97 100 103 105 104 102 100 100 96 90 84 81 78 75 74 73 71 68 65 65 65 65 66 66 66 66 65 66 73 79 87 98 102 98 94
88 93 98 102 104 104 102 99 95 93 93 91 84 81 77 73 69 65 63 63 63 63 63 63 62 63 63 64 65 65 65 70 78 82 89 99 99 97
94 99 103 105 103 100 95 90 88 87 86 86 82 78 72 66 63 59 57 57 58 61 61 60 60 60 60 61 63 65 66 69 76 80 82 85 90 95
99 102 104 102 97 92 88 85 84 83 81 82 82 75 68 63 62 60 57 55 55 56 55 54 55 55 55 56 59 61 63 67 74 80 80 77 76 83
102 102 100 95 89 85 82 81 81 80 81 83 79 71 66 64 62 60 57 52 48 48 49 46 48 48 48 50 51 53 56 61 71 79 80 74 71 72
102 98 93 86 80 77 75 76 77 78 83 81 74 67 64 62 59 55 52 48 40 37 41 37 38 36 35 36 38 41 46 55 66 75 76 72 68 66
98 91 83 76 73 71 72 73 73 78 79 73 68 64 61 57 53 47 43 40 34 31 30 24 23 22 22 23 25 29 36 46 57 67 70 68 65 62
88 80 74 70 69 71 72 73 77 76 68 63 61 59 54 49 44 40 36 30 25 24 21 12 11 12 14 17 20 21 25 35 49 59 62 59 57 55
77 72 70 69 69 73 77 78 76 64 56 54 51 48 44 40 37 34 31 26 18 16 15 7 4 6 8 11 13 11 13 25 40 50 53 53 53 53
72 68 68 71 73 77 78 74 61 51 46 40 36 34 33 32 32 31 29 23 14 12 13 7 3 3 2 6 6 4 5 17 33 44 49 52 54 54
71 70 71 74 76 74 67 56 47 43 35 30 28 29 30 29 29 28 26 21 14 11 10 8 7 7 7 5 4 1 4 11 23 36 44 49 53 55
75 74 74 72 67 59 48 42 38 31 27 28 29 29 28 26 25 23 20 18 15 11 11 10 10 11 11 11 7 4 4 7 14 22 30 35 38 42
77 73 67 59 50 41 37 33 27 25 27 28 27 25 22 20 18 17 18 17 16 13 12 11 10 10 10 9 8 7 4 6 11 17 22 24 25 26
67 59 50 42 36 33 30 24 23 26 27 24 21 19 17 17 16 16 16 15 15 14 12 8 6 5 5 4 9 11 9 10 14 18 22 26 27 28
52 43 37 32 29 25 21 21 24 24 22 20 19 18 17 17 16 15 15 15 15 14 12 8 6 6 6 8 13 16 15 16 18 21 23 26 29 31
43 36 29 25 21 16 17 20 19 18 18 18 18 17 16 15 14 14 15 17 17 17 15 12 9 10 12 15 18 19 19 19 21 22 23 24 27 28
35 28 23 18 15 16 18 16 15 15 16 17 17 16 15 14 14 14 15 17 19 19 17 15 13 12 13 15 18 19 19 21 21 22 22 25 26 26
27 21 16 14 15 16 14 13 14 15 15 16 16 15 14 13 13 13 14 16 19 20 18 16 15 14 14 16 17 17 19 20 21 20 21 24 26 26
18 15 14 15 16 14 13 14 15 15 15 15 15 14 13 12 12 12 13 14 16 17 17 15 14 13 13 15 16 16 17 18 20 21 23 24 24 25
14 13 15 15 13 14 15 16 16 16 16 15 15 14 13 12 12 12 12 12 12 11 12 12 12 11 11 12 14 16 16 17 20 23 24 25 24 24
13 15 14 14 14 15 16 17 17 17 17 16 14 13 11 10 10 11 11 10 9 7 6 6 8 10 11 12 13 14 16 18 19 21 22 23 25 27
Wind_Direction
306 306 307 308 308 308 308 309 308 306 305 305 304 303 302 299 297 295 293 292 288 285 280 276 272 268 266 263 259 254 247 240 234 230 229 228 228 227
309 310 310 310 310 311 311 310 308 308 308 308 307 305 303 301 299 297 295 292 289 285 280 276 271 267 265 263 260 256 248 242 237 233 230 229 229 230
312 312 312 313 313 312 311 310 309 308 308 309 309 308 306 303 301 297 293 291 288 286 284 280 276 272 267 263 260 257 251 242 237 234 232 231 230 231
313 313 314 314 313 311 310 309 309 308 309 310 310 309 308 306 302 298 293 291 289 288 286 283 279 273 268 263 259 257 253 245 236 233 232 232 232 232
314 314 314 313 312 310 309 308 308 308 309 310 311 310 308 307 305 301 296 293 292 290 288 284 279 274 269 264 261 258 254 245 237 232 231 233 233 233
314 314 313 312 310 309 308 308 308 309 310 311 311 310 308 307 305 302 298 296 294 292 289 285 281 276 272 268 264 259 253 244 235 229 228 230 231 233
314 313 312 311 309 308 308 309 310 311 312 312 311 311 310 307 305 303 302 300 299 295 289 287 284 281 276 271 266 260 252 241 232 226 224 227 228 230
315 314 312 310 309 309 309 310 311 313 313 312 311 311 310 308 307 306 306 305 303 294 291 291 288 286 281 276 270 260 247 236 227 222 221 223 226 228
315 314 312 311 310 310 310 311 311 312 312 311 311 311 311 310 310 310 310 310 307 298 293 293 288 292 291 289 281 266 247 233 224 220 219 222 224 227
316 314 313 312 312 311 312 312 313 314 312 311 311 310 311 312 314 317 319 318 310 298 294 293 294 306 307 300 289 274 248 230 222 219 220 223 225 226
316 314 314 313 313 312 313 313 313 313 312 312 311 311 313 316 320 324 328 329 316 287 283 280 296 314 315 304 299 289 248 226 220 220 222 224 223 222
316 315 315 314 313 312 312 313 314 314 315 314 314 315 319 322 324 327 333 336 323 288 280 267 260 284 297 314 317 314 232 221 221 221 223 224 223 223
317 316 315 313 313 313 313 314 316 319 321 322 323 321 321 321 322 325 329 333 332 309 295 280 267 264 259 252 271 251 209 217 220 222 225 227 228 229
317 316 314 313 313 314 314 316 320 323 325 325 323 321 319 319 321 323 326 327 326 318 303 296 284 273 264 255 238 205 194 207 210 213 217 221 225 228
315 315 315 315 316 316 318 321 325 327 327 327 325 324 326 329 332 333 332 331 326 318 306 295 285 274 269 251 215 175 155 157 173 184 189 192 196 201
316 316 317 319 320 322 326 330 332 333 334 337 340 341 342 345 346 346 346 347 345 339 333 321 304 290 266 213 170 153 132 134 149 158 163 166 168 169
322 322 323 324 326 329 334 336 337 340 345 349 352 355 357 359 0 2 5 7 7 8 14 26 55 70 90 123 139 137 131 135 140 143 149 156 159 162
326 327 329 333 338 344 343 341 346 354 360 2 6 10 13 15 17 21 24 24 27 33 41 54 76 88 96 114 126 130 132 135 137 138 142 149 155 159
330 334 340 347 354 352 350 354 1 6 9 12 16 20 23 26 28 30 31 33 38 44 51 62 77 93 106 118 127 132 136 140 140 142 146 149 151 156
338 346 357 3 358 355 360 5 6 7 8 11 14 17 20 23 28 33 37 40 44 48 54 65 78 93 110 121 128 134 139 145 147 150 153 155 156 158
352 4 10 2 359 6 11 8 6 4 2 2 3 4 6 10 16 23 29 35 42 47 52 62 77 93 111 124 131 135 140 147 153 157 158 157 158 161
11 12 5 7 15 15 10 6 1 358 356 355 354 353 355 357 2 7 12 17 25 37 51 64 76 90 109 128 139 145 149 153 157 162 165 165 167 170
10 7 15 22 18 12 8 4 1 359 359 359 358 356 356 360 4 7 10 11 15 24 46 76 92 100 107 119 135 148 156 161 166 171 173 173 174 175